Location: Fontevrault
(47.1823°N, 0.0493°E)
Time: 08:59:17
(UTC+00:00)

NOSS 0 Rocket - Pass Details

Date: 16 June 2021
Orbit: 934 x 956 km, 70.0° (Epoch: 01 August)

Event Time Altitude Azimuth Distance (km) Brightness Sun altitude
Exits shadow 23:45:22 22° 220° (SW) 1,926 5.1 -19.4°
Maximum altitude 23:49:29 72° 301° (WNW) 998 4.1 -19.4°
Drops below altitude 10° 23:55:43 10° 26° (NNE) 2,689 7.2 -19.4°
Sets 23:58:18 0° 28° (NNE) 3,640 8.0 -19.4°
